Change the Weather History Date:

Tuesday, May 28, 2013

  Actual Average Record
Temperature  
Mean Temperature 74 °F -  
Max Temperature 82 °F 74 °F 89 °F (2012)
Min Temperature 67 °F 54 °F 39 °F (1968)
Cooling Degree Days 10    
Growing Degree Days 24 (Base 50)    
Moisture  
Dew Point 64 °F    
Average Humidity 72    
Maximum Humidity 79    
Minimum Humidity 62    
Precipitation  
Precipitation 0.70 in - - ()
Sea Level Pressure  
Sea Level Pressure 29.75 in    
Wind  
Wind Speed 12 mph (South)    
Max Wind Speed 30 mph    
Max Gust Speed 44 mph    
Visibility 9 miles    
Events Rain    
Averages and records for this station are not official NWS values.
T = Trace of Precipitation, MM = Missing Value Source: NWS Daily Summary

Daily Weather History Graph

Daily Weather History Graph

Search for Another Location

Airport or City:

Trip Planner

Search our weather history database for the weather conditions in past years. The results will help you decide how hot, cold, wet, or windy it might be!

Date:

Astronomy

May. 28, 2013 Rise Set
Actual Time 5:38 AM CDT 8:28 PM CDT
Civil Twilight 5:05 AM CDT 9:01 PM CDT
Nautical Twilight 4:24 AM CDT 9:42 PM CDT
Astronomical Twilight 3:37 AM CDT 10:30 PM CDT
Moon 11:51 PM CDT (5/28) 9:27 AM CDT (5/28)
Length of Visible Light 15h 55m
Length of Day
14h 50m
Waning Gibbous, 82% of the Moon is Illuminated
May 28
Waning Gibbous
May 31
Last Quarter
Jun 8
New
Jun 16
First Quarter
Jun 23
Full

Hourly Weather History & Observations

Time (CDT) Temp. Heat Index Dew Point Humidity Pressure Visibility Wind Dir Wind Speed Gust Speed Precip Events Conditions
12:15 AM 70.0 °F - 62.1 °F 76% 29.77 in 10.0 mi SE 6.9 mph - N/A   Scattered Clouds
12:35 AM 70.0 °F - 62.2 °F 76% 29.76 in 10.0 mi SSE 8.1 mph - N/A   Mostly Cloudy
12:55 AM 70.7 °F - 62.6 °F 75% 29.76 in 10.0 mi SSE 8.1 mph - N/A   Overcast
1:15 AM 71.6 °F - 62.6 °F 73% 29.75 in 10.0 mi South 8.1 mph - N/A   Overcast
1:35 AM 71.6 °F - 62.6 °F 73% 29.74 in 10.0 mi South 9.2 mph - N/A   Overcast
1:55 AM 72.5 °F - 62.8 °F 71% 29.73 in 10.0 mi South 10.4 mph - N/A   Overcast
2:15 AM 72.7 °F - 63.0 °F 71% 29.73 in 10.0 mi South 10.4 mph - N/A   Overcast
2:35 AM 73.4 °F - 62.8 °F 69% 29.73 in 10.0 mi South 10.4 mph - N/A   Scattered Clouds
2:55 AM 73.6 °F - 62.6 °F 68% 29.72 in 10.0 mi South 10.4 mph - N/A   Scattered Clouds
3:15 AM 73.6 °F - 62.8 °F 69% 29.72 in 10.0 mi SSW 11.5 mph - N/A Rain Light Rain
3:35 AM 73.0 °F - 63.7 °F 72% 29.75 in 10.0 mi SSW 12.7 mph - 0.01 in Rain Light Rain
3:55 AM 72.1 °F - 64.6 °F 77% 29.72 in 7.0 mi South 16.1 mph 24.2 mph 0.11 in Rain Rain
4:15 AM 71.8 °F - 63.7 °F 76% 29.68 in 7.0 mi SE 20.7 mph 26.5 mph 0.04 in Rain Rain
4:35 AM 71.6 °F - 63.1 °F 75% 29.60 in 10.0 mi ESE 23.0 mph 31.1 mph 0.06 in Rain Light Rain
4:55 AM 71.6 °F - 62.1 °F 72% 29.68 in 10.0 mi South 17.3 mph 25.3 mph 0.06 in   Scattered Clouds
5:15 AM 71.1 °F - 63.7 °F 77% 29.73 in 10.0 mi SSW 13.8 mph 24.2 mph N/A   Mostly Cloudy
5:35 AM 70.7 °F - 63.9 °F 79% 29.74 in 10.0 mi SSW 16.1 mph 23.0 mph N/A   Overcast
5:55 AM 69.8 °F - 62.4 °F 77% 29.73 in 10.0 mi South 17.3 mph 23.0 mph N/A   Scattered Clouds
6:15 AM 69.4 °F - 61.0 °F 74% 29.71 in 10.0 mi South 16.1 mph 21.9 mph N/A   Clear
6:35 AM 69.3 °F - 60.8 °F 74% 29.72 in 10.0 mi SSW 13.8 mph - N/A   Scattered Clouds
6:55 AM 68.9 °F - 61.2 °F 76% 29.77 in 2.5 mi SW 16.1 mph 25.3 mph 0.23 in Rain Heavy Rain
7:15 AM 68.4 °F - 61.7 °F 79% 29.76 in 3.0 mi SSW 18.4 mph 25.3 mph 0.12 in Rain Heavy Rain
7:35 AM 68.4 °F - 61.7 °F 79% 29.76 in 5.0 mi SSW 10.4 mph - 0.16 in Rain Rain
7:55 AM 68.5 °F - 61.9 °F 79% 29.76 in 10.0 mi South 5.8 mph - 0.16 in   Overcast
8:15 AM 68.5 °F - 61.9 °F 79% 29.76 in 10.0 mi SSE 6.9 mph - N/A   Overcast
8:35 AM 69.1 °F - 62.1 °F 78% 29.75 in 10.0 mi SE 11.5 mph - N/A   Overcast
8:55 AM 70.0 °F - 61.9 °F 75% 29.75 in 10.0 mi SE 9.2 mph - N/A   Overcast
9:15 AM 70.0 °F - 62.4 °F 77% 29.75 in 10.0 mi SE 9.2 mph - N/A   Overcast
9:35 AM 71.1 °F - 63.5 °F 77% 29.74 in 10.0 mi SE 11.5 mph - N/A   Overcast
9:55 AM 72.5 °F - 64.4 °F 76% 29.73 in 10.0 mi SSE 9.2 mph - N/A   Overcast
10:15 AM 75.0 °F - 66.4 °F 74% 29.73 in 10.0 mi South 11.5 mph - N/A   Mostly Cloudy
10:35 AM 77.9 °F - 67.1 °F 69% 29.73 in 10.0 mi SSW 15.0 mph - N/A   Scattered Clouds
10:55 AM 78.8 °F - 66.9 °F 67% 29.72 in 10.0 mi SSW 17.3 mph 24.2 mph N/A   Mostly Cloudy
11:15 AM 79.0 °F - 66.7 °F 66% 29.72 in 10.0 mi SSW 20.7 mph 24.2 mph N/A   Overcast
11:35 AM 79.2 °F - 66.9 °F 66% 29.73 in 10.0 mi SSW 19.6 mph 25.3 mph N/A   Overcast
11:55 AM 79.9 °F - 66.9 °F 64% 29.73 in 10.0 mi South 19.6 mph 23.0 mph N/A   Overcast
12:15 PM 80.6 °F 83.2 °F 67.6 °F 65% 29.73 in 10.0 mi SSW 17.3 mph - N/A   Overcast
12:35 PM 80.6 °F 83.2 °F 67.6 °F 65% 29.73 in 10.0 mi SSW 16.1 mph - N/A   Overcast
12:55 PM 81.0 °F 83.4 °F 67.5 °F 63% 29.73 in 10.0 mi SSW 16.1 mph 21.9 mph N/A   Overcast
1:15 PM 81.1 °F 83.7 °F 67.6 °F 63% 29.72 in 10.0 mi SSW 17.3 mph 20.7 mph N/A   Overcast
1:35 PM 80.8 °F 83.5 °F 67.8 °F 65% 29.73 in 10.0 mi SSW 15.0 mph - N/A   Overcast
1:55 PM 80.6 °F 83.4 °F 68.2 °F 66% 29.74 in 10.0 mi SSW 13.8 mph - N/A   Overcast
2:15 PM 80.8 °F 83.6 °F 68.5 °F 66% 29.75 in 10.0 mi SSW 12.7 mph - N/A   Overcast
2:35 PM 82.4 °F 85.8 °F 69.1 °F 64% 29.75 in 10.0 mi SSW 16.1 mph - N/A   Overcast
2:55 PM 82.4 °F 85.4 °F 68.4 °F 62% 29.75 in 10.0 mi SSW 19.6 mph - N/A   Overcast
3:15 PM 82.4 °F 85.6 °F 68.5 °F 63% 29.75 in 10.0 mi SSW 20.7 mph 25.3 mph N/A   Mostly Cloudy
3:35 PM 82.4 °F 85.4 °F 68.4 °F 62% 29.74 in 10.0 mi SSW 19.6 mph 26.5 mph N/A   Mostly Cloudy
3:55 PM 82.0 °F 85.1 °F 68.5 °F 63% 29.76 in 10.0 mi SSW 17.3 mph 24.2 mph N/A   Overcast
4:15 PM 81.5 °F 84.6 °F 68.5 °F 65% 29.75 in 10.0 mi SW 18.4 mph 21.9 mph N/A   Overcast
4:35 PM 81.5 °F 84.9 °F 69.4 °F 67% 29.74 in 10.0 mi South 12.7 mph - N/A   Scattered Clouds
4:55 PM 79.9 °F - 68.9 °F 69% 29.75 in 10.0 mi SSW 13.8 mph - N/A   Mostly Cloudy
5:15 PM 79.2 °F - 68.9 °F 71% 29.75 in 7.0 mi SSW 12.7 mph - N/A   Mostly Cloudy
5:55 PM 77.9 °F - 69.8 °F 76% 29.75 in 5.0 mi SSW 8.1 mph - 0.01 in Rain Light Rain
6:35 PM 77.0 °F - 69.8 °F 78% 29.75 in 5.0 mi SSW 5.8 mph - 0.03 in   Haze
6:55 PM 77.4 °F - 70.0 °F 78% 29.72 in 5.0 mi South 8.1 mph - 0.03 in   Haze
7:15 PM 77.0 °F - 69.8 °F 78% 29.73 in 5.0 mi South 6.9 mph - N/A   Haze
7:35 PM 77.0 °F - 69.6 °F 78% 29.76 in 7.0 mi SSW 3.5 mph - N/A   Mostly Cloudy
7:55 PM 76.5 °F - 69.1 °F 78% 29.75 in 7.0 mi SSE 6.9 mph - N/A   Scattered Clouds
8:15 PM 73.8 °F - 62.6 °F 68% 29.83 in 7.0 mi West 29.9 mph 43.7 mph 0.01 in Rain Light Rain
8:35 PM 68.4 °F - 58.1 °F 70% 29.82 in 7.0 mi WNW 24.2 mph 29.9 mph 0.03 in Rain Light Rain
9:15 PM 68.0 °F - 59.5 °F 74% 29.82 in 10.0 mi NW 6.9 mph - N/A Rain Light Rain
9:35 PM 70.7 °F - 58.3 °F 65% 29.88 in 10.0 mi West 13.8 mph 19.6 mph 0.02 in Rain Rain
9:55 PM 69.3 °F - 58.5 °F 68% 29.89 in 10.0 mi West 12.7 mph 20.7 mph 0.04 in Rain Rain
10:15 PM 68.4 °F - 59.0 °F 72% 29.89 in 10.0 mi West 6.9 mph - 0.01 in Rain Rain
10:55 PM 67.5 °F - 59.9 °F 77% 29.83 in 10.0 mi ESE 6.9 mph - 0.03 in   Overcast
11:15 PM 67.3 °F - 59.9 °F 77% 29.80 in 10.0 mi ESE 6.9 mph - N/A   Overcast
11:35 PM 67.1 °F - 59.9 °F 78% 29.84 in 10.0 mi South 10.4 mph - N/A   Scattered Clouds
11:55 PM 67.1 °F - 59.9 °F 78% 29.83 in 10.0 mi South 11.5 mph - N/A   Clear